Time,TemperatureF,DewpointF,PressureIn,WindDirection,WindDirectionDegrees,WindSpeedMPH,WindSpeedGustMPH,Humidity,HourlyPrecipIn,Conditions,Clouds,dailyrainin,SoftwareType,DateUTC
2013-07-23 00:01:00,57.0,54.0,30.22,South,188,0.0,0.0,90,0.00,,,0.47,,2013-07-23 07:01:00,
2013-07-23 00:11:00,57.0,54.0,30.22,South,188,0.0,0.0,90,0.00,,,0.47,,2013-07-23 07:11:00,
2013-07-23 00:21:00,56.0,53.0,30.22,South,188,0.0,0.0,89,0.00,,,0.47,,2013-07-23 07:21:00,
2013-07-23 00:32:00,56.0,53.0,30.21,South,188,0.0,0.0,90,0.00,,,0.47,,2013-07-23 07:32:00,
2013-07-23 00:42:00,56.0,53.0,30.21,South,188,0.0,0.0,90,0.00,,,0.47,,2013-07-23 07:42:00,
2013-07-23 00:52:00,55.0,52.0,30.21,South,188,0.0,0.0,90,0.00,,,0.47,,2013-07-23 07:52:00,
2013-07-23 01:01:00,55.0,52.0,30.21,South,188,0.0,0.0,90,0.00,,,0.47,,2013-07-23 08:01:00,
2013-07-23 01:11:00,55.0,52.0,30.21,South,188,0.0,0.0,91,0.00,,,0.47,,2013-07-23 08:11:00,
2013-07-23 01:21:00,55.0,52.0,30.21,South,188,0.0,0.0,91,0.00,,,0.47,,2013-07-23 08:21:00,
2013-07-23 01:33:00,55.0,52.0,30.21,South,188,0.0,0.0,91,0.00,,,0.47,,2013-07-23 08:33:00,
2013-07-23 01:43:00,55.0,52.0,30.21,South,188,0.0,0.0,90,0.00,,,0.47,,2013-07-23 08:43:00,
2013-07-23 01:52:00,54.0,51.0,30.20,South,188,0.0,0.0,91,0.00,,,0.47,,2013-07-23 08:52:00,
2013-07-23 02:11:00,54.0,51.0,30.20,South,188,0.0,0.0,91,0.00,,,0.48,,2013-07-23 09:11:00,
2013-07-23 02:22:00,54.0,51.0,30.20,South,188,0.0,1.0,91,0.00,,,0.48,,2013-07-23 09:22:00,
2013-07-23 02:33:00,54.0,51.0,30.20,South,188,0.0,0.0,91,0.00,,,0.48,,2013-07-23 09:33:00,
2013-07-23 02:42:00,54.0,51.0,30.20,South,188,0.0,0.0,91,0.00,,,0.48,,2013-07-23 09:42:00,
2013-07-23 02:52:00,54.0,51.0,30.20,South,188,0.0,0.0,91,0.00,,,0.48,,2013-07-23 09:52:00,
2013-07-23 03:01:00,54.0,51.0,30.20,South,188,0.0,0.0,91,0.00,,,0.48,,2013-07-23 10:01:00,
2013-07-23 03:11:00,54.0,52.0,30.20,South,188,0.0,0.0,92,0.00,,,0.48,,2013-07-23 10:11:00,
2013-07-23 03:21:00,54.0,52.0,30.20,South,188,0.0,0.0,92,0.00,,,0.48,,2013-07-23 10:21:00,
2013-07-23 03:32:00,54.0,52.0,30.20,South,188,0.0,0.0,92,0.00,,,0.48,,2013-07-23 10:32:00,
2013-07-23 03:52:00,54.0,52.0,30.20,South,188,0.0,0.0,92,0.00,,,0.48,,2013-07-23 10:52:00,
2013-07-23 04:01:00,53.0,51.0,30.21,South,188,0.0,0.0,92,0.00,,,0.48,,2013-07-23 11:01:00,
2013-07-23 04:43:00,52.0,50.0,30.21,South,188,0.0,0.0,92,0.00,,,0.48,,2013-07-23 11:43:00,
2013-07-23 04:52:00,52.0,50.0,30.21,South,188,0.0,0.0,92,0.00,,,0.48,,2013-07-23 11:52:00,
2013-07-23 05:01:00,52.0,50.0,30.21,South,188,0.0,0.0,92,0.00,,,0.48,,2013-07-23 12:01:00,
2013-07-23 05:11:00,52.0,50.0,30.21,South,188,0.0,0.0,92,0.00,,,0.48,,2013-07-23 12:11:00,
2013-07-23 05:22:00,52.0,50.0,30.21,South,188,0.0,0.0,92,0.00,,,0.48,,2013-07-23 12:22:00,
2013-07-23 05:33:00,52.0,50.0,30.21,South,188,0.0,0.0,92,0.00,,,0.48,,2013-07-23 12:33:00,
2013-07-23 05:43:00,52.0,50.0,30.22,South,188,0.0,0.0,92,0.00,,,0.48,,2013-07-23 12:43:00,
2013-07-23 06:11:00,52.0,50.0,30.22,South,188,0.0,0.0,92,0.00,,,0.48,,2013-07-23 13:11:00,
2013-07-23 06:32:00,51.0,49.0,30.22,South,188,0.0,0.0,92,0.00,,,0.48,,2013-07-23 13:32:00,
2013-07-23 06:43:00,51.0,49.0,30.22,South,188,0.0,0.0,92,0.00,,,0.48,,2013-07-23 13:43:00,
2013-07-23 06:52:00,51.0,49.0,30.22,South,188,0.0,0.0,92,0.00,,,0.48,,2013-07-23 13:52:00,
2013-07-23 07:02:00,51.0,49.0,30.22,South,188,0.0,0.0,92,0.00,,,0.48,,2013-07-23 14:02:00,
2013-07-23 07:12:00,51.0,49.0,30.22,South,188,0.0,0.0,92,0.00,,,0.48,,2013-07-23 14:12:00,
2013-07-23 07:22:00,53.0,51.0,30.22,South,188,0.0,0.0,92,0.00,,,0.48,,2013-07-23 14:22:00,
2013-07-23 07:32:00,54.0,52.0,30.22,South,188,0.0,0.0,93,0.00,,,0.48,,2013-07-23 14:32:00,
2013-07-23 07:44:00,55.0,53.0,30.21,South,188,0.0,0.0,93,0.00,,,0.48,,2013-07-23 14:44:00,
2013-07-23 07:53:00,55.0,53.0,30.21,South,188,0.0,0.0,93,0.00,,,0.48,,2013-07-23 14:53:00,
2013-07-23 08:03:00,55.0,53.0,30.21,South,191,0.0,2.0,93,0.00,,,0.48,,2013-07-23 15:03:00,
2013-07-23 08:11:00,56.0,54.0,30.22,South,191,0.0,0.0,93,0.00,,,0.48,,2013-07-23 15:11:00,
2013-07-23 08:24:00,57.0,55.0,30.22,South,191,0.0,0.0,93,0.00,,,0.48,,2013-07-23 15:24:00,
2013-07-23 08:32:00,57.0,55.0,30.22,SSW,192,0.0,0.0,93,0.00,,,0.48,,2013-07-23 15:32:00,
2013-07-23 08:43:00,60.0,58.0,30.23,SW,217,0.0,0.0,92,0.00,,,0.48,,2013-07-23 15:43:00,
2013-07-23 08:52:00,60.0,58.0,30.23,SW,217,0.0,0.0,92,0.00,,,0.48,,2013-07-23 15:52:00,
2013-07-23 09:01:00,61.0,58.0,30.23,SW,217,0.0,0.0,90,0.00,,,0.48,,2013-07-23 16:01:00,
2013-07-23 09:22:00,63.0,59.0,30.23,North,10,0.0,2.0,87,0.00,,,0.48,,2013-07-23 16:22:00,
2013-07-23 09:33:00,64.0,60.0,30.23,NW,316,0.0,2.0,87,0.00,,,0.48,,2013-07-23 16:33:00,
2013-07-23 09:43:00,67.0,63.0,30.23,SSE,158,0.0,0.0,87,0.00,,,0.48,,2013-07-23 16:43:00,
2013-07-23 09:52:00,68.0,53.0,30.23,NE,51,0.0,0.0,59,0.00,,,0.48,,2013-07-23 16:52:00,
2013-07-23 10:02:00,69.0,53.0,30.23,WNW,301,0.0,2.0,56,0.00,,,0.48,,2013-07-23 17:02:00,
2013-07-23 10:11:00,69.0,53.0,30.23,WNW,301,0.0,2.0,56,0.00,,,0.48,,2013-07-23 17:11:00,
2013-07-23 10:21:00,70.0,53.0,30.23,WNW,292,0.0,5.0,54,0.00,,,0.48,,2013-07-23 17:21:00,
2013-07-23 10:32:00,70.0,52.0,30.23,WNW,291,0.0,0.0,52,0.00,,,0.48,,2013-07-23 17:32:00,
2013-07-23 10:42:00,72.0,52.0,30.24,South,178,0.0,6.0,49,0.00,,,0.48,,2013-07-23 17:42:00,
2013-07-23 10:53:00,74.0,54.0,30.24,WNW,282,0.0,2.0,49,0.00,,,0.48,,2013-07-23 17:53:00,
2013-07-23 11:11:00,73.0,52.0,30.24,NNW,333,0.0,2.0,48,0.00,,,0.48,,2013-07-23 18:11:00,
2013-07-23 11:43:00,74.0,52.0,30.24,SSW,210,0.0,0.0,47,0.00,,,0.48,,2013-07-23 18:43:00,
2013-07-23 11:52:00,74.0,52.0,30.24,SSW,210,0.0,0.0,47,0.00,,,0.48,,2013-07-23 18:52:00,
2013-07-23 12:01:00,74.0,52.0,30.24,WNW,301,2.0,5.0,47,0.00,,,0.48,,2013-07-23 19:01:00,
2013-07-23 12:11:00,74.0,52.0,30.24,WNW,301,2.0,5.0,47,0.00,,,0.48,,2013-07-23 19:11:00,
2013-07-23 12:22:00,72.0,51.0,30.24,SW,224,1.0,6.0,47,0.00,,,0.48,,2013-07-23 19:22:00,
2013-07-23 12:43:00,75.0,51.0,30.24,SW,220,1.0,5.0,43,0.00,,,0.48,,2013-07-23 19:43:00,
2013-07-23 12:52:00,75.0,51.0,30.24,SW,220,1.0,5.0,43,0.00,,,0.48,,2013-07-23 19:52:00,
2013-07-23 13:02:00,75.0,52.0,30.24,SE,141,0.0,0.0,45,0.00,,,0.48,,2013-07-23 20:02:00,
2013-07-23 13:11:00,74.0,52.0,30.24,South,181,0.0,2.0,47,0.00,,,0.48,,2013-07-23 20:11:00,
2013-07-23 13:53:00,71.0,51.0,30.23,NE,48,0.0,0.0,50,0.00,,,0.44,,2013-07-23 20:53:00,
2013-07-23 14:02:00,70.0,50.0,30.23,NE,49,0.0,0.0,50,0.00,,,0.27,,2013-07-23 21:02:00,
2013-07-23 14:22:00,70.0,54.0,30.23,South,188,0.0,2.0,56,0.00,,,0.21,,2013-07-23 21:22:00,
2013-07-23 14:32:00,70.0,53.0,30.23,SSW,205,0.0,2.0,55,0.00,,,0.21,,2013-07-23 21:32:00,
2013-07-23 14:44:00,70.0,54.0,30.23,SSW,205,0.0,0.0,56,0.00,,,0.08,,2013-07-23 21:44:00,
2013-07-23 15:02:00,70.0,54.0,30.22,SW,233,0.0,0.0,56,0.00,,,0.05,,2013-07-23 22:02:00,
2013-07-23 15:11:00,70.0,54.0,30.22,SW,233,0.0,0.0,56,0.00,,,0.05,,2013-07-23 22:11:00,
2013-07-23 15:22:00,72.0,53.0,30.22,South,175,0.0,0.0,52,0.00,,,0.03,,2013-07-23 22:22:00,
2013-07-23 15:43:00,74.0,53.0,30.22,SW,229,0.0,2.0,48,0.00,,,0.03,,2013-07-23 22:43:00,
2013-07-23 15:53:00,74.0,53.0,30.22,SW,229,0.0,2.0,48,0.00,,,0.03,,2013-07-23 22:53:00,
2013-07-23 16:02:00,74.0,53.0,30.22,WSW,237,1.0,5.0,48,0.00,,,0.03,,2013-07-23 23:02:00,
2013-07-23 16:11:00,74.0,54.0,30.22,WSW,258,1.0,7.0,49,0.00,,,0.03,,2013-07-23 23:11:00,
2013-07-23 16:22:00,74.0,54.0,30.21,SSW,212,0.0,4.0,49,0.00,,,0.02,,2013-07-23 23:22:00,
2013-07-23 16:33:00,73.0,53.0,30.21,SW,224,1.0,7.0,49,0.00,,,0.02,,2013-07-23 23:33:00,
2013-07-23 16:43:00,73.0,55.0,30.21,SW,220,0.0,5.0,53,0.00,,,0.02,,2013-07-23 23:43:00,
2013-07-23 16:53:00,72.0,53.0,30.21,SSW,200,1.0,5.0,52,0.00,,,0.02,,2013-07-23 23:53:00,
2013-07-23 17:02:00,72.0,52.0,30.21,SW,219,0.0,5.0,50,0.00,,,0.02,,2013-07-24 00:02:00,
2013-07-23 17:12:00,72.0,52.0,30.21,SW,219,0.0,5.0,50,0.00,,,0.02,,2013-07-24 00:12:00,
2013-07-23 17:22:00,74.0,52.0,30.21,West,280,0.0,1.0,46,0.00,,,0.02,,2013-07-24 00:22:00,
2013-07-23 17:32:00,74.0,50.0,30.21,NW,305,1.0,5.0,43,0.00,,,0.02,,2013-07-24 00:32:00,
2013-07-23 17:43:00,75.0,53.0,30.20,North,3,0.0,0.0,46,0.00,,,0.02,,2013-07-24 00:43:00,
2013-07-23 17:53:00,75.0,53.0,30.20,North,3,0.0,0.0,46,0.00,,,0.02,,2013-07-24 00:53:00,
2013-07-23 18:12:00,74.0,53.0,30.19,NW,322,1.0,7.0,48,0.00,,,0.02,,2013-07-24 01:12:00,
2013-07-23 18:22:00,74.0,53.0,30.19,SW,216,1.0,7.0,48,0.00,,,0.02,,2013-07-24 01:22:00,
2013-07-23 18:32:00,73.0,52.0,30.19,SW,236,1.0,4.0,48,0.00,,,0.02,,2013-07-24 01:32:00,
2013-07-23 18:43:00,72.0,52.0,30.19,SSW,202,0.0,4.0,49,0.00,,,0.02,,2013-07-24 01:43:00,
2013-07-23 19:02:00,71.0,51.0,30.19,SW,224,0.0,0.0,50,0.00,,,0.02,,2013-07-24 02:02:00,
2013-07-23 19:12:00,71.0,51.0,30.19,SW,224,0.0,0.0,50,0.00,,,0.02,,2013-07-24 02:12:00,
2013-07-23 19:33:00,70.0,52.0,30.20,SW,215,0.0,0.0,53,0.00,,,0.02,,2013-07-24 02:33:00,
2013-07-23 19:44:00,69.0,51.0,30.20,SW,215,0.0,0.0,53,0.00,,,0.02,,2013-07-24 02:44:00,
2013-07-23 19:53:00,69.0,51.0,30.20,SW,215,0.0,0.0,53,0.00,,,0.02,,2013-07-24 02:53:00,
2013-07-23 20:02:00,69.0,51.0,30.20,SW,220,0.0,1.0,53,0.00,,,0.02,,2013-07-24 03:02:00,
2013-07-23 20:22:00,68.0,52.0,30.20,SW,220,0.0,0.0,57,0.00,,,0.00,,2013-07-24 03:22:00,
2013-07-23 20:53:00,66.0,53.0,30.21,SW,220,0.0,0.0,64,0.00,,,0.00,,2013-07-24 03:53:00,
2013-07-23 21:01:00,64.0,52.0,30.21,SW,220,0.0,0.0,66,0.00,,,0.00,,2013-07-24 04:01:00,
2013-07-23 21:22:00,64.0,53.0,30.22,SW,220,0.0,0.0,67,0.00,,,0.00,,2013-07-24 04:22:00,
2013-07-23 21:32:00,63.0,53.0,30.22,SW,220,0.0,0.0,70,0.00,,,0.00,,2013-07-24 04:32:00,
2013-07-23 21:43:00,62.0,53.0,30.22,SW,220,0.0,0.0,72,0.00,,,0.00,,2013-07-24 04:43:00,
2013-07-23 21:52:00,62.0,53.0,30.22,SW,220,0.0,0.0,72,0.00,,,0.00,,2013-07-24 04:52:00,
2013-07-23 22:02:00,62.0,53.0,30.22,SW,220,0.0,0.0,72,0.00,,,0.00,,2013-07-24 05:02:00,
2013-07-23 22:32:00,60.0,52.0,30.23,SW,220,0.0,0.0,75,0.00,,,0.00,,2013-07-24 05:32:00,
2013-07-23 22:43:00,59.0,52.0,30.23,SW,220,0.0,0.0,77,0.00,,,0.00,,2013-07-24 05:43:00,
2013-07-23 22:52:00,59.0,52.0,30.23,SW,220,0.0,0.0,77,0.00,,,0.00,,2013-07-24 05:52:00,
2013-07-23 23:01:00,59.0,52.0,30.23,SW,220,0.0,0.0,77,0.00,,,0.00,,2013-07-24 06:01:00,
2013-07-23 23:11:00,58.0,51.0,30.23,SW,220,0.0,0.0,78,0.00,,,0.00,,2013-07-24 06:11:00,
2013-07-23 23:34:00,58.0,51.0,30.23,SW,220,0.0,0.0,78,0.00,,,0.00,,2013-07-24 06:34:00,
2013-07-23 23:43:00,58.0,52.0,30.24,SW,220,0.0,0.0,79,0.00,,,0.00,,2013-07-24 06:43:00,
2013-07-23 23:53:00,58.0,52.0,30.24,SW,220,0.0,0.0,79,0.00,,,0.00,,2013-07-24 06:53:00,